| time (UTC) | temp C | wind direction | speed KPH | gust KPH | rain 1hr cm | rain 24hr cm | rain mn cm | humidity % | barometer mb |
| 20260906214557 | 31 | 184 | 6.4 | 14.5 | 0.00 | 0.00 | 0.00 | 35 | 1000.5 |
| 20260906213052 | 31 | 127 | 8.0 | 16.1 | 0.00 | 0.00 | 0.00 | 35 | 1000.8 |
| 20260906211552 | 31 | 144 | 3.2 | 20.9 | 0.00 | 0.00 | 0.00 | 37 | 1000.9 |
| 20260906210058 | 31 | 171 | 1.6 | 14.5 | 0.00 | 0.00 | 0.00 | 37 | 1001.2 |
| 20260906204544 | 31 | 113 | 8.0 | 17.7 | 0.00 | 0.00 | 0.00 | 37 | 1001.4 |
| 20260906203043 | 30 | 123 | 6.4 | 12.9 | 0.00 | 0.00 | 0.00 | 39 | 1001.5 |
| 20260906201539 | 30 | 154 | 1.6 | 14.5 | 0.00 | 0.00 | 0.00 | 39 | 1001.6 |
| 20260906200048 | 30 | 171 | 4.8 | 14.5 | 0.00 | 0.00 | 0.00 | 40 | 1001.7 |
| 20260906194538 | 30 | 135 | 1.6 | 8.0 | 0.00 | 0.00 | 0.00 | 40 | 1001.9 |
| 20260906193032 | 29 | 139 | 3.2 | 14.5 | 0.00 | 0.00 | 0.00 | 41 | 1002.0 |
| 20260906191539 | 28 | 121 | 3.2 | 14.5 | 0.00 | 0.00 | 0.00 | 44 | 1002.2 |
| 20260906190037 | 28 | 111 | 4.8 | 17.7 | 0.00 | 0.00 | 0.00 | 46 | 1002.4 |
| 20260906184522 | 28 | 126 | 4.8 | 11.3 | 0.00 | 0.00 | 0.00 | 46 | 1002.9 |
| 20260906183018 | 27 | 128 | 3.2 | 8.0 | 0.00 | 0.00 | 0.00 | 48 | 1003.3 |
| 20260906181530 | 27 | 64 | 4.8 | 12.9 | 0.00 | 0.00 | 0.00 | 48 | 1003.4 |
| 20260906180013 | 27 | 134 | 6.4 | 9.7 | 0.00 | 0.00 | 0.00 | 52 | 1003.7 |
| 20260906174509 | 26 | 94 | 3.2 | 12.9 | 0.00 | 0.00 | 0.00 | 51 | 1004.0 |
| 20260906173007 | 26 | 89 | 3.2 | 11.3 | 0.00 | 0.00 | 0.00 | 53 | 1004.3 |
| 20260906171505 | 25 | 99 | 3.2 | 14.5 | 0.00 | 0.00 | 0.00 | 56 | 1004.6 |
| 20260906170004 | 25 | 101 | 3.2 | 12.9 | 0.00 | 0.00 | 0.00 | 57 | 1004.8 |
| 20260906164503 | 24 | 71 | 1.6 | 8.0 | 0.00 | 0.00 | 0.00 | 56 | 1004.9 |
| 20260906163058 | 23 | 55 | 1.6 | 9.7 | 0.00 | 0.00 | 0.00 | 55 | 1004.7 |
| 20260906161555 | 23 | 22 | 6.4 | 9.7 | 0.00 | 0.00 | 0.00 | 58 | 1004.8 |
| 20260906160052 | 22 | 24 | 6.4 | 14.5 | 0.00 | 0.00 | 0.00 | 61 | 1005.0 |
| 20260906154556 | 22 | 44 | 3.2 | 14.5 | 0.00 | 0.00 | 0.00 | 62 | 1005.0 |
| 20260906153047 | 21 | 70 | 4.8 | 11.3 | 0.00 | 0.00 | 0.00 | 64 | 1005.1 |
| 20260906151547 | 21 | 49 | 4.8 | 11.3 | 0.00 | 0.00 | 0.00 | 66 | 1005.2 |
| 20260906150049 | 20 | 71 | 4.8 | 11.3 | 0.00 | 0.00 | 0.00 | 68 | 1005.4 |
| 20260906144545 | 20 | 46 | 6.4 | 12.9 | 0.00 | 0.00 | 0.00 | 66 | 1005.3 |
| 20260906143102 | 20 | 109 | 4.8 | 12.9 | 0.00 | 0.00 | 0.00 | 67 | 1005.3 |
| 20260906141544 | 20 | 38 | 4.8 | 11.3 | 0.00 | 0.00 | 0.00 | 70 | 1005.4 |
| 20260906140046 | 19 | 71 | 4.8 | 9.7 | 0.00 | 0.00 | 0.00 | 71 | 1005.6 |
| 20260906134549 | 17 | 5 | 6.4 | 11.3 | 0.00 | 0.00 | 0.00 | 72 | 1005.8 |
| 20260906133045 | 17 | 9 | 9.7 | 12.9 | 0.00 | 0.00 | 0.00 | 72 | 1005.6 |
| 20260906131547 | 16 | 13 | 6.4 | 9.7 | 0.00 | 0.00 | 0.00 | 73 | 1005.5 |
| 20260906130043 | 16 | 5 | 6.4 | 11.3 | 0.00 | 0.00 | 0.00 | 77 | 1005.3 |
| 20260906124534 | 16 | 56 | 4.8 | 9.7 | 0.00 | 0.00 | 0.00 | 77 | 1005.2 |
| 20260906123035 | 16 | 25 | 8.0 | 9.7 | 0.00 | 0.00 | 0.00 | 78 | 1004.9 |
| 20260906121529 | 16 | 28 | 6.4 | 9.7 | 0.00 | 0.00 | 0.00 | 77 | 1004.9 |
| 20260906120026 | 17 | 13 | 4.8 | 8.0 | 0.00 | 0.00 | 0.00 | 75 | 1004.9 |
| 20260906114529 | 17 | 33 | 6.4 | 12.9 | 0.00 | 0.00 | 0.00 | 75 | 1004.9 |
| 20260906113036 | 17 | 32 | 9.7 | 12.9 | 0.00 | 0.00 | 0.00 | 72 | 1004.9 |
| 20260906111522 | 17 | 26 | 9.7 | 17.7 | 0.00 | 0.00 | 0.00 | 71 | 1004.8 |
| 20260906110017 | 18 | 34 | 8.0 | 14.5 | 0.00 | 0.00 | 0.00 | 68 | 1004.7 |
| 20260906104514 | 17 | 22 | 8.0 | 12.9 | 0.00 | 0.00 | 0.00 | 68 | 1004.7 |
| 20260906103010 | 17 | 19 | 8.0 | 9.7 | 0.00 | 0.00 | 0.00 | 64 | 1004.7 |
| 20260906101508 | 18 | 45 | 4.8 | 14.5 | 0.00 | 0.00 | 0.00 | 62 | 1004.8 |
| 20260906100007 | 18 | 49 | 6.4 | 12.9 | 0.00 | 0.00 | 0.00 | 62 | 1004.8 |
| 20260906094508 | 18 | 29 | 8.0 | 12.9 | 0.00 | 0.00 | 0.00 | 60 | 1004.4 |
| 20260906093001 | 18 | 46 | 8.0 | 11.3 | 0.00 | 0.00 | 0.00 | 59 | 1004.3 |
| 20260906091600 | 18 | 38 | 8.0 | 14.5 | 0.00 | 0.00 | 0.00 | 58 | 1004.2 |
| 20260906090117 | 18 | 19 | 8.0 | 14.5 | 0.00 | 0.00 | 0.00 | 57 | 1004.0 |
| 20260906084556 | 18 | 17 | 8.0 | 14.5 | 0.00 | 0.00 | 0.00 | 56 | 1003.8 |
| 20260906083053 | 19 | 360 | 11.3 | 16.1 | 0.00 | 0.00 | 0.00 | 56 | 1003.9 |
| 20260906081553 | 20 | 42 | 8.0 | 11.3 | 0.00 | 0.00 | 0.00 | 55 | 1004.0 |
| 20260906080049 | 20 | 36 | 9.7 | 14.5 | 0.00 | 0.00 | 0.00 | 54 | 1004.0 |
| 20260906074546 | 20 | 29 | 9.7 | 16.1 | 0.00 | 0.00 | 0.00 | 51 | 1004.2 |
| 20260906073044 | 20 | 17 | 12.9 | 19.3 | 0.00 | 0.00 | 0.00 | 50 | 1003.9 |
| 20260906071552 | 20 | 48 | 9.7 | 14.5 | 0.00 | 0.00 | 0.00 | 50 | 1004.0 |
| 20260906070039 | 20 | 23 | 6.4 | 14.5 | 0.00 | 0.00 | 0.00 | 50 | 1003.9 |
| 20260906064540 | 20 | 338 | 8.0 | 9.7 | 0.00 | 0.00 | 0.00 | 48 | 1004.1 |
| 20260906063032 | 20 | 311 | 6.4 | 9.7 | 0.00 | 0.00 | 0.00 | 47 | 1004.2 |
| 20260906061529 | 21 | 313 | 4.8 | 6.4 | 0.00 | 0.00 | 0.00 | 46 | 1004.1 |
| 20260906060029 | 21 | 12 | 8.0 | 12.9 | 0.00 | 0.00 | 0.00 | 47 | 1004.0 |
| 20260906054525 | 21 | 348 | 8.0 | 12.9 | 0.00 | 0.00 | 0.00 | 47 | 1003.7 |
| 20260906053029 | 21 | 18 | 6.4 | 9.7 | 0.00 | 0.00 | 0.00 | 46 | 1003.9 |
| 20260906051531 | 21 | 126 | 4.8 | 6.4 | 0.00 | 0.00 | 0.00 | 46 | 1003.8 |
| 20260906050047 | 21 | 131 | 6.4 | 12.9 | 0.00 | 0.00 | 0.00 | 46 | 1003.6 |
| 20260906044522 | 22 | 296 | 6.4 | 9.7 | 0.00 | 0.00 | 0.00 | 45 | 1002.7 |
| 20260906043021 | 22 | 111 | 12.9 | 19.3 | 0.00 | 0.00 | 0.00 | 44 | 1002.8 |
| 20260906041521 | 22 | 360 | 4.8 | 11.3 | 0.00 | 0.00 | 0.00 | 41 | 1002.1 |
| 20260906040020 | 22 | 313 | 6.4 | 11.3 | 0.00 | 0.00 | 0.00 | 40 | 1002.2 |
| 20260906034530 | 23 | 360 | 4.8 | 8.0 | 0.00 | 0.00 | 0.00 | 39 | 1002.5 |
| 20260906033024 | 24 | 65 | 1.6 | 9.7 | 0.00 | 0.00 | 0.00 | 40 | 1002.4 |
| 20260906031520 | 25 | 355 | 6.4 | 14.5 | 0.00 | 0.00 | 0.00 | 37 | 1002.2 |
| 20260906030019 | 26 | 55 | 3.2 | 20.9 | 0.00 | 0.00 | 0.00 | 34 | 1001.9 |
| 20260906024517 | 27 | 314 | 14.5 | 24.1 | 0.00 | 0.00 | 0.00 | 32 | 1001.5 |
| 20260906023024 | 27 | 331 | 9.7 | 19.3 | 0.00 | 0.00 | 0.00 | 31 | 1001.4 |
| 20260906021517 | 27 | 314 | 19.3 | 25.7 | 0.00 | 0.00 | 0.00 | 31 | 1001.3 |
| 20260906020016 | 27 | 313 | 19.3 | 27.4 | 0.00 | 0.00 | 0.00 | 30 | 1000.9 |
| 20260906014516 | 27 | 316 | 17.7 | 29.0 | 0.00 | 0.00 | 0.00 | 31 | 1000.9 |
| 20260906013015 | 27 | 319 | 19.3 | 30.6 | 0.00 | 0.00 | 0.00 | 30 | 1000.8 |
| 20260906011514 | 27 | 285 | 27.4 | 37.0 | 0.00 | 0.00 | 0.00 | 31 | 1001.0 |
| 20260906010015 | 27 | 315 | 30.6 | 41.8 | 0.00 | 0.00 | 0.00 | 31 | 1000.8 |
| 20260906004513 | 28 | 313 | 32.2 | 40.2 | 0.00 | 0.00 | 0.00 | 31 | 1001.3 |
| 20260906003012 | 28 | 304 | 29.0 | 46.7 | 0.00 | 0.00 | 0.00 | 31 | 1001.4 |
| 20260906001510 | 29 | 304 | 27.4 | 40.2 | 0.00 | 0.00 | 0.00 | 28 | 1001.1 |
| 20260906000009 | 30 | 306 | 24.1 | 43.5 | 0.00 | 0.00 | 0.00 | 28 | 1000.9 |
| 20260905234508 | 30 | 319 | 27.4 | 41.8 | 0.00 | 0.00 | 0.00 | 26 | 1001.0 |
| 20260905233017 | 32 | 316 | 3.2 | 6.4 | 0.00 | 0.00 | 0.00 | 23 | 1000.7 |
| 20260905231505 | 32 | 229 | 1.6 | 4.8 | 0.00 | 0.00 | 0.00 | 24 | 1000.4 |
| 20260905230006 | 32 | 232 | 1.6 | 8.0 | 0.00 | 0.00 | 0.00 | 23 | 1000.2 |
| 20260905224509 | 32 | 174 | 1.6 | 11.3 | 0.00 | 0.00 | 0.00 | 24 | 1000.1 |
| 20260905223005 | 32 | 131 | 1.6 | 17.7 | 0.00 | 0.00 | 0.00 | 23 | 1000.1 |
| 20260905221506 | 33 | 172 | 3.2 | 12.9 | 0.00 | 0.00 | 0.00 | 23 | 1000.0 |
| 20260905220003 | 34 | 138 | 8.0 | 27.4 | 0.00 | 0.00 | 0.00 | 22 | 1000.2 |